Location: �terpigny
(49.8910°N, 2.9249°E)
Time: 18:15:40
(UTC+00:00)

Cosmos 2278 Rocket - Pass Details

Date: 24 October 2021
Orbit: 841 x 845 km, 71.0° (Epoch: 07 December)

Event Time Altitude Azimuth Distance (km) Brightness Sun altitude
Rises 17:42:52 0° 332° (NNW) 3,417 5.7 -10.8°
Reaches altitude 10° 17:46:25 10° 355° (N) 2,478 4.6 -11.4°
Maximum altitude 17:49:45 16° 31° (NNE) 2,100 3.9 -11.9°
Enters shadow 17:52:03 13° 57° (ENE) 2,284 3.9 -12.3°
